James Reserve, California Weather observations

Data are for 10 minute period ending at time listed.
 Day   Time   Solar   Ave.   Ave.  Ave.  Vector  Max.   Baro.   Total    
  of    of     Rad.   Air    Rel.  Wind   Wind   Wind  Press.  Precip.   
Year   Day            Temp.  Hum.  Speed  Dir.   Gust                    
2014   (PST)  Kw/m2    F      %     mph   deg.    mph    mb.     in.     
-------------------------------------------------------------------------
 296   16:10   0.04   66.0    23    0.4   219     1.3   840.0    0.00 
 296   16:20   0.01   65.0    24    0.3   276     0.8   840.0    0.00 
 296   16:30   0.01   63.7    26    0.3    18     0.8   840.0    0.00 
 296   16:40   0.00   62.5    26    0.3    39     0.8   840.0    0.00 
 296   16:50   0.00   61.3    27    0.3    46     0.7   840.0    0.00 
 296   17:00   0.00   60.1    27    0.3    53     0.6   840.0    0.00 
 296   17:10   0.00   59.0    28    0.3    42     0.5   840.0    0.00 
 296   17:20   0.00   57.8    30    0.2    46     0.4   840.0    0.00 
 296   17:30   0.00   56.6    31    0.2   353     0.3   840.0    0.00 
 296   17:40   0.00   55.3    32    0.2     5     0.4   840.0    0.00 
 296   17:50   0.00   54.5    32    0.2   360     0.5   840.0    0.00 
 296   18:00   0.00   53.6    33    0.2    19     0.3   840.0    0.00 
 296   18:10   0.00   52.9    33    0.2    11     0.3   841.0    0.00 
 296   18:20   0.00   52.3    34    0.2    22     0.4   841.0    0.00 
 296   18:30   0.00   51.8    33    0.2    19     0.3   841.0    0.00 
 296   18:40   0.00   51.4    33    0.2    18     0.4   841.0    0.00 
 296   18:50   0.00   51.0    34    0.2    14     0.3   841.0    0.00 
 296   19:00   0.00   50.6    35    0.2   355     0.3   841.0    0.00 
 296   19:10   0.00   50.2    35    0.3    22     0.5   841.0    0.00 
 296   19:20   0.00   49.9    36    0.2   356     0.4   841.0    0.00 
 296   19:30   0.00   49.6    36    0.2     0     0.4   841.0    0.00 
 296   19:40   0.00   49.3    37    0.2     1     0.3   841.0    0.00 
 296   19:50   0.00   49.0    37    0.2     3     0.4   841.0    0.00 
 296   20:00   0.00   48.8    38    0.2     4     0.3   841.0    0.00 
 296   20:10   0.00   48.6    37    0.2     7     0.3   841.0    0.00 
 296   20:20   0.00   48.4    36    0.2     9     0.3   841.0    0.00 
 296   20:30   0.00   48.1    36    0.3     2     0.5   841.0    0.00 
 296   20:40   0.00   47.9    36    0.3    12     0.5   841.0    0.00 
 296   20:50   0.00   47.7    36    0.3    11     0.4   841.0    0.00 
 296   21:00   0.00   47.6    36    0.3   355     0.5   841.0    0.00 
 296   21:10   0.00   47.5    36    0.3    28     0.5   841.0    0.00 
 296   21:20   0.00   47.4    37    0.2    13     0.4   841.0    0.00 
 296   21:30   0.00   47.2    38    0.3    24     0.4   841.0    0.00 
 296   21:40   0.00   47.2    38    0.2    12     0.5   841.0    0.00 
 296   21:50   0.00   47.2    40    0.2    21     0.4   841.0    0.00 
 296   22:00   0.00   47.0    40    0.2    10     0.4   841.0    0.00 
 296   22:10   0.00   47.1    41    0.2    21     0.4   841.0    0.00 
 296   22:20   0.00   47.1    41    0.2    20     0.4   841.0    0.00 
 296   22:30   0.00   47.2    42    0.2    10     0.6   841.0    0.00 
 296   22:40   0.00   47.2    42    0.3    19     0.4   841.0    0.00 
 296   22:50   0.00   47.4    42    0.3    29     0.6   841.0    0.00 
 296   23:00   0.00   47.7    42    0.3    36     0.5   841.0    0.00 
 296   23:10   0.00   47.9    42    0.3    29     0.5   841.0    0.00 
 296   23:20   0.00   48.1    42    0.3    28     0.5   841.0    0.00 
 296   23:30   0.00   48.1    42    0.3    25     0.5   841.0    0.00 
 296   23:40   0.00   48.3    42    0.3    31     0.5   841.0    0.00 
 296   23:50   0.00   48.4    42    0.3    29     0.5   841.0    0.00 
 297    0:00   0.00   48.3    42    0.3    32     0.5   841.0    0.00 
 297    0:10   0.00   48.6    42    0.3    34     0.4   841.0    0.00 
 297    0:20   0.00   48.5    42    0.3    20     0.4   841.0    0.00 
 297    0:30   0.00   48.3    43    0.2     5     0.5   841.0    0.00 
 297    0:40   0.00   48.0    44    0.3    31     0.5   841.0    0.00 
 297    0:50   0.00   47.8    44    0.2     9     0.3   841.0    0.00 
 297    1:00   0.00   47.8    45    0.2    25     0.5   841.0    0.00 
 297    1:10   0.00   47.7    45    0.3    13     0.5   841.0    0.00 
 297    1:20   0.00   47.7    45    0.2    30     0.4   841.0    0.00 
 297    1:30   0.00   47.6    45    0.2    23     0.5   841.0    0.00 
 297    1:40   0.00   47.4    46    0.2    17     0.5   841.0    0.00 
 297    1:50   0.00   47.1    46    0.2    20     0.4   841.0    0.00 
 297    2:00   0.00   47.0    47    0.3    30     0.5   841.0    0.00 
 297    2:10   0.00   46.8    47    0.2    17     0.5   841.0    0.00 
 297    2:20   0.00   46.6    48    0.2    20     0.4   841.0    0.00 
 297    2:30   0.00   46.5    48    0.2    18     0.5   841.0    0.00 
 297    2:40   0.00   46.5    48    0.2    12     0.5   841.0    0.00 
 297    2:50   0.00   46.5    48    0.2    23     0.4   841.0    0.00 
 297    3:00   0.00   46.6    48    0.2    22     0.4   841.0    0.00 
 297    3:10   0.00   46.6    49    0.2    20     0.5   841.0    0.00 
 297    3:20   0.00   46.5    49    0.2    17     0.3   841.0    0.00 
 297    3:30   0.00   46.4    50    0.2    17     0.4   841.0    0.00 
 297    3:40   0.00   46.4    50    0.2    17     0.4   841.0    0.00 
 297    3:50   0.00   46.5    50    0.3    33     0.6   841.0    0.00 
 297    4:00   0.00   46.6    50    0.3    35     0.5   841.0    0.00 
 297    4:10   0.00   46.7    50    0.2    10     0.4   841.0    0.00 
 297    4:20   0.00   46.6    51    0.2    13     0.4   841.0    0.00 
 297    4:30   0.00   46.5    51    0.2     4     0.4   841.0    0.00 
 297    4:40   0.00   46.2    51    0.2     5     0.4   841.0    0.00 
 297    4:50   0.00   45.9    52    0.2    26     0.4   841.0    0.00 
 297    5:00   0.00   46.0    51    0.2    20     0.5   841.0    0.00 
 297    5:10   0.00   46.1    51    0.2    24     0.7   841.0    0.00 
 297    5:20   0.00   45.8    51    0.2    13     0.5   841.0    0.00 
 297    5:30   0.00   45.8    52    0.2     5     0.5   841.0    0.00 
 297    5:40   0.00   45.6    52    0.2    20     0.4   841.0    0.00 
 297    5:50   0.00   45.4    53    0.2    24     0.4   841.0    0.00 
 297    6:00   0.00   45.3    53    0.2    18     0.3   841.0    0.00 
 297    6:10   0.00   45.3    54    0.2    14     0.3   841.0    0.00 
 297    6:20   0.00   45.3    53    0.2    35     0.5   841.0    0.00 
 297    6:30   0.01   45.4    54    0.2    10     0.4   841.0    0.00 
 297    6:40   0.01   45.5    54    0.2    24     0.3   841.0    0.00 
 297    6:50   0.01   45.7    55    0.2    10     0.4   841.0    0.00 
 297    7:00   0.01   45.8    56    0.2    31     0.5   841.0    0.00 
 297    7:10   0.01   45.9    57    0.3    40     0.5   842.0    0.00 
 297    7:20   0.02   46.4    57    0.4    43     0.7   842.0    0.00 
 297    7:30   0.02   47.2    57    0.5    43     0.9   842.0    0.00 
 297    7:40   0.02   48.2    56    0.6    49     0.9   842.0    0.00 
 297    7:50   0.03   49.3    54    0.6    48     1.0   842.0    0.00 
 297    8:00   0.03   50.4    51    0.7    53     1.2   842.0    0.00 
 297    8:10   0.03   51.4    49    0.6    50     0.9   842.0    0.00 
 297    8:20   0.04   52.3    47    0.6    52     1.0   842.0    0.00 
 297    8:30   0.04   53.3    46    0.5    52     0.9   842.0    0.00 
 297    8:40   0.03   54.5    44    0.6    49     1.0   842.0    0.00 
 297    8:50   0.04   55.9    42    0.4    50     1.1   842.0    0.00 
 297    9:00   0.05   57.6    39    0.5    77     1.1   842.0    0.00 
 297    9:10   0.04   60.0    36    0.5    82     1.0   842.0    0.00 
 297    9:20   0.04   62.9    32    0.5    83     1.7   842.0    0.00 
 297    9:30   0.04   66.2    27    0.5   145     1.8   842.0    0.00 
 297    9:40   0.04   67.9    25    0.5   120     1.9   842.0    0.00 
 297    9:50   0.04   69.2    23    0.6   204     1.6   842.0    0.00 
 297   10:00   0.05   69.7    22    0.7   180     1.8   842.0    0.00 
 297   10:10   0.32   69.5    22    0.7   144     2.2   842.0    0.00 
 297   10:20   0.12   70.5    22    0.9   183     2.3   842.0    0.00 
 297   10:30   0.05   71.3    21    0.9   198     2.8   842.0    0.00 
 297   10:40   0.06   71.2    21    0.9   171     2.2   842.0    0.00 
 297   10:50   0.25   71.6    21    0.9   155     2.8   842.0    0.00 
 297   11:00   0.75   72.0    21    0.8    36     1.6   842.0    0.00 
 297   11:10   0.79   72.9    20    0.8    10     2.0   842.0    0.00 
 297   11:20   0.79   73.5    20    0.9   132     2.5   841.0    0.00 
 297   11:30   0.79   72.7    20    1.1   164     3.5   841.0    0.00 
 297   11:40   0.79   73.4    20    0.8   241     2.1   841.0    0.00 
 297   11:50   0.79   73.9    20    1.0   189     2.2   841.0    0.00 
 297   12:00   0.79   74.2    21    1.0   189     4.2   841.0    0.00 
 297   12:10   0.78   74.2    20    0.9   237     2.3   841.0    0.00 
 297   12:20   0.77   75.3    20    0.9   143     2.0   841.0    0.00 
 297   12:30   0.76   74.2    20    0.9   168     2.0   840.0    0.00 
 297   12:40   0.75   73.7    21    1.1   163     2.7   840.0    0.00 
 297   12:50   0.73   73.7    21    0.8   300     1.7   840.0    0.00 
 297   13:00   0.72   73.5    20    1.0   202     4.1   840.0    0.00 
 297   13:10   0.70   72.5    21    1.0    88     2.4   840.0    0.00 
 297   13:20   0.69   72.5    21    0.9   168     2.1   840.0    0.00 
 297   13:30   0.37   72.2    21    1.0   185     2.7   840.0    0.00 
 297   13:40   0.53   72.3    22    0.9   190     2.5   840.0    0.00 
 297   13:50   0.62   72.3    21    0.9   279     2.3   840.0    0.00 
 297   14:00   0.59   72.1    22    0.9   150     2.5   840.0    0.00 
 297   14:10   0.56   71.7    22    0.9   172     2.5   840.0    0.00 
 297   14:20   0.13   70.9    23    0.9     9     2.2   840.0    0.00 
 297   14:30   0.03   70.6    23    0.8   123     3.0   840.0    0.00 
 297   14:40   0.04   69.8    24    0.6   224     1.8   840.0    0.00 
 297   14:50   0.04   69.5    25    0.8   164     1.8   840.0    0.00 
 297   15:00   0.05   69.3    26    0.7   192     2.1   840.0    0.00 
 297   15:10   0.03   69.1    26    0.5   311     2.2   840.0    0.00 
 297   15:20   0.03   68.5    27    0.5   138     1.8   840.0    0.00 
 297   15:30   0.03   68.1    28    0.7   273     1.9   840.0    0.00 
 297   15:40   0.05   67.6    28    0.6    58     1.8   840.0    0.00 
 297   15:50   0.03   67.3    28    0.7    92     1.9   840.0    0.00 
 297   16:00   0.02   66.5    29    0.5    34     1.2   840.0    0.00 

Return to James Reserve graphs page.


Western Regional Climate Center,wrcc@dri.edu